User: anonymous   Login
Location: Caltech
(34.1382°N, 118.1253°W)
Time: 18:15:17
(UTC-07:00)
Language:

FO-29 - Orbit

View from above orbital plane
View from above orbital plane
View from above satellite
View from above satellite

Ground track
Ground track

The orbit data is extracted from the following two-line orbital elements,

1 24278U 96046B   17144.57616533 -.00000042 +00000-0 -80704-5 0  9993
2 24278 098.5674 030.9718 0351116 038.7191 323.8563 13.53076367025433
Epoch (UTC): 24 May 2017 13:49:40
Eccentricity: 0.0351116
inclination: 98.5674°
perigee height: 800 km
apogee height: 1322 km
right ascension of ascending node: 30.9718°
argument of perigee: 38.7191°
revolutions per day: 13.53076367
mean anomaly at epoch: 323.8563°
orbit number at epoch: 2543

The dashed part of the orbit path shows where the satellite is in the earth's shadow,  

DLR